Home > Weather > Porta Westfalica > Past weeks

Flag for Germany Past Weather in Porta Westfalica, North Rhine-Westphalia, Germany — Yesterday and Last 2 Weeks

Now
81 °F

Partly sunny.


Feels Like: 81 °F
Forecast: 60 / 74 °F
Wind: 10 mph from West

Location: Bueckeburg

Current Time: Jul 25, 2016 at 2:07:16 PM

Latest Report: Jul 25, 2016 at 1:20 PM


Visibility: N/A

Pressure: 30.04 "Hg

Humidity: 51%

Dew Point: 61 °F

Location of Porta WestfalicaLocation

Past Weather in Porta Westfalica — Graph

°F

Porta Westfalica Temperature Yesterday

Maximum temperature yesterday: 84 °F (at 2:20 PM)
Minimum temperature yesterday: 63 °F (at 4:20 AM)
Average temperature yesterday: 74 °F

High & Low Weather Summary for the Past Weeks

 TemperatureHumidityPressure
High90 °F (Jul 20, 3:20 PM)100% (Jul 17, 3:20 AM)30.24 "Hg (Jul 17, 3:20 AM)
Low54 °F (Jul 14, 6:20 AM)28% (Jul 17, 4:20 PM)29.74 "Hg (Jul 10, 8:20 PM)
Average69 °F69%30.03 "Hg
* Reported Jul 10 12:20 PM — Jul 25 12:20 PM, Porta Westfalica, Weather by CustomWeather, © 2016

Note: Actual official high and low records may vary slightly from our data, if they occured in-between our weather recording intervals... More about our weather records

Advertising

Porta Westfalica Weather History for the Previous 24 Hours

Scroll right to see more
 ConditionsComfort  
Time TempWeatherWind HumidityBarometerVisibility
12:20 PM
Mon, Jul 25
79 °FBroken clouds.10 mph58%30.07 "HgN/A
11:20 AM77 °FBroken clouds.8 mph65%30.07 "HgN/A
10:20 AM77 °FPartly sunny.6 mph65%30.07 "HgN/A
9:20 AM73 °FPartly sunny.3 mph74%30.07 "HgN/A
8:20 AM70 °FPartly sunny.2 mph83%30.04 "HgN/A
7:20 AM70 °FBroken clouds.2 mph83%30.04 "HgN/A
6:20 AM66 °FPassing clouds.2 mph94%30.04 "HgN/A
5:20 AM66 °FPassing clouds.3 mph88%30.04 "HgN/A
4:20 AM66 °FPassing clouds.1 mph88%30.04 "HgN/A
3:20 AM66 °FPassing clouds.2 mph88%30.04 "HgN/A
2:20 AM66 °FPassing clouds.2 mph88%30.07 "HgN/A
1:20 AM66 °FPartly cloudy.2 mph83%30.07 "HgN/A
12:20 AM68 °FPassing clouds.2 mph83%30.07 "HgN/A
11:20 PM
Sun, Jul 24
70 °FPassing clouds.2 mph78%30.07 "HgN/A
10:20 PM73 °FPartly sunny.2 mph65%30.07 "HgN/A
9:20 PM77 °FBroken clouds.2 mph57%30.07 "HgN/A
8:20 PM79 °FBroken clouds.7 mph51%30.04 "HgN/A
7:20 PM84 °FPartly sunny.5 mph35%30.04 "HgN/A
6:20 PM84 °FScattered clouds.8 mph35%30.04 "HgN/A
5:20 PM84 °FScattered clouds.5 mph33%30.04 "HgN/A
4:20 PM84 °FPassing clouds.3 mph31%30.07 "HgN/A
3:20 PM84 °FPassing clouds.5 mph31%30.07 "HgN/A
2:20 PM84 °FPassing clouds.6 mph31%30.07 "HgN/A
Weather by CustomWeather, © 2016

See weather overviewHow to use our weather pages